Location: Kaarina
(60.4167°N, 22.4167°E)
Time: 21:13:51
(UTC+03:00)

Cosmos 1300 Rocket - Pass Details

Date: 24 August 2019
Orbit: 602 x 626 km, 82.5° (Epoch: 14 October)

Event Time Altitude Azimuth Distance (km) Brightness Sun altitude
Exits shadow 22:52:24 17° 146° (SE) 1,554 5.0 -11.8°
Maximum altitude 22:55:07 34° 91° (E) 1,024 4.4 -12.1°
Drops below altitude 10° 22:59:04 10° 27° (NNE) 1,981 6.5 -12.4°
Sets 23:01:25 0° 18° (NNE) 2,887 7.5 -12.5°
